{"data":{"norad_id":66233,"epoch":"2026-09-20T13:09:48.871584Z","epoch_age_seconds":92467,"freshness":"FRESH","line1":"1 66233U 25244AD  26263.54848231  .00018702  00000+0  56331-3 0  9999","line2":"2 66233  53.1594  43.3605 0001197  92.8290 267.2850 15.34397259 51518","mean_motion":15.34397259,"eccentricity":0.0001197,"inclination_deg":53.1594,"raan_deg":43.3605,"arg_perigee_deg":92.829,"mean_anomaly_deg":267.285,"bstar":0.00056331,"rev_number":5151,"period_min":93.847925728079,"perigee_km":461.89253749694,"apogee_km":463.5302366008,"semimajor_km":6840.8483870489,"source":"CELESTRAK","updated_at":"2026-09-21T09:00:35.845277Z"}}